Simultaneous Nadir Overpasses (SNOs) Predictions

Prediction of SNOs between GOES-15 and NPP Satellite Orbit:

Table of predicted SNOs for the next 14.0 days since TLE Epoch: 8/28/2020
Index Date Time (GOES-15) GOES-15 Lat,Lon NPP Lat,Lon Distance(km) Time Diff (sec)
1 08/28/2020 22:05:00 0.07,-127.62 -0.36,-129.57 222.27 80
2 08/29/2020 21:43:36 0.07,-127.65 0.64,-125.03 298.11 80
3 08/31/2020 10:05:25 -0.07,-127.78 0.48,-130.32 289.05 80
4 09/01/2020 09:49:20 -0.07,-127.82 -0.52,-125.78 231.40 80
5 09/02/2020 22:11:18 0.08,-127.81 -0.65,-131.09 374.41 80
6 09/03/2020 21:49:53 0.08,-127.84 0.36,-126.56 145.90 80
7 09/05/2020 10:11:42 -0.08,-127.96 0.82,-131.83 441.68 80
8 09/06/2020 09:55:38 -0.08,-128.00 -0.24,-127.31 78.51 80
9 09/08/2020 21:58:51 0.08,-128.01 0.08,-128.09 8.38 80
10 09/11/2020 09:59:15 -0.09,-128.15 0.09,-128.82 78.12 80
